When you browse on this site, cookies collect data to enhance your experience and personalize the content and advertising you see.
Visit our Privacy Policy to learn more. By continuing to use the site, you agree to this use of cookies and data.
  • en France
  • Liste des pays
  • À 7 jours
  • Température de l'eau
  • Carte satellitaire
  • Carte météo
  • Widgets météo
  • user-avatar
    Se connecter

    Météo par heure à Townsville

    Ce jour, 21 Mars, Jeudi

    Heure Température Précipitation Vent Pression Humidité
    00:00 +27°C° 0.1 mm 3 m/s 751 mmHg 88%
    01:00 +27°C° 0.1 mm 3 m/s 751 mmHg 87%
    02:00 +27°C° 0.2 mm 3 m/s 751 mmHg 88%
    03:00 +27°C° 0.2 mm 3 m/s 750 mmHg 88%
    04:00 +27°C° 0 mm 3 m/s 750 mmHg 90%
    05:00 +27°C° 0.5 mm 3 m/s 750 mmHg 89%
    06:00 +27°C° 0.5 mm 3 m/s 751 mmHg 89%
    07:00 +27°C° 0.5 mm 3 m/s 751 mmHg 89%
    08:00 +28°C° 1 mm 3 m/s 751 mmHg 85%
    09:00 +28°C° 1 mm 3 m/s 752 mmHg 82%
    10:00 +28°C° 1 mm 3 m/s 752 mmHg 79%
    11:00 +29°C° 0.4 mm 3 m/s 752 mmHg 76%
    12:00 +29°C° 0.4 mm 3 m/s 751 mmHg 72%
    13:00 +30°C° 0.4 mm 3 m/s 751 mmHg 69%
    14:00 +30°C° 0.2 mm 3 m/s 751 mmHg 70%
    15:00 +29°C° 0.2 mm 3 m/s 751 mmHg 71%
    16:00 +29°C° 0.2 mm 3 m/s 750 mmHg 72%
    17:00 +28°C° 0 mm 3 m/s 751 mmHg 74%
    18:00 +27°C° 0 mm 3 m/s 751 mmHg 76%
    19:00 +27°C° 0 mm 2 m/s 751 mmHg 78%
    20:00 +27°C° 0 mm 2 m/s 752 mmHg 79%
    21:00 +27°C° 0 mm 2 m/s 752 mmHg 80%
    22:00 +26°C° 0 mm 2 m/s 752 mmHg 81%
    23:00 +26°C° 0.3 mm 2 m/s 752 mmHg 83%

    Demain, 22 Mars, Vendredi

    Heure Température Précipitation Vent Pression Humidité
    00:00 +26°C° 0.3 mm 2 m/s 752 mmHg 84%
    01:00 +26°C° 0.3 mm 2 m/s 752 mmHg 85%
    02:00 +26°C° 0.4 mm 2 m/s 752 mmHg 86%
    03:00 +26°C° 0.4 mm 3 m/s 751 mmHg 87%
    04:00 +26°C° 0.4 mm 3 m/s 751 mmHg 88%
    05:00 +26°C° 0.3 mm 3 m/s 751 mmHg 87%
    06:00 +26°C° 0.3 mm 3 m/s 752 mmHg 87%
    07:00 +26°C° 0.3 mm 3 m/s 752 mmHg 87%
    08:00 +27°C° 0.2 mm 3 m/s 752 mmHg 84%
    09:00 +28°C° 0.2 mm 3 m/s 753 mmHg 82%
    10:00 +28°C° 0.2 mm 3 m/s 753 mmHg 79%
    11:00 +28°C° 0.7 mm 3 m/s 752 mmHg 78%
    12:00 +29°C° 0.7 mm 3 m/s 752 mmHg 77%
    13:00 +29°C° 0.7 mm 3 m/s 752 mmHg 76%
    14:00 +29°C° 1 mm 3 m/s 751 mmHg 77%
    15:00 +28°C° 1 mm 3 m/s 751 mmHg 78%
    16:00 +28°C° 1 mm 3 m/s 750 mmHg 79%
    17:00 +28°C° 0.1 mm 3 m/s 751 mmHg 81%
    18:00 +27°C° 0.1 mm 3 m/s 751 mmHg 83%
    19:00 +27°C° 0.1 mm 3 m/s 752 mmHg 85%
    20:00 +27°C° 0 mm 3 m/s 752 mmHg 85%
    21:00 +27°C° 0 mm 3 m/s 753 mmHg 86%
    22:00 +27°C° 0 mm 3 m/s 753 mmHg 87%
    23:00 +27°C° 0.6 mm 3 m/s 753 mmHg 87%

    Après-demain, 23 Mars, Samedi

    Heure Température Précipitation Vent Pression Humidité
    00:00 +27°C° 0.6 mm 3 m/s 752 mmHg 88%
    01:00 +26°C° 0.6 mm 3 m/s 752 mmHg 89%
    02:00 +26°C° 0.5 mm 3 m/s 752 mmHg 89%
    03:00 +26°C° 0.5 mm 2 m/s 751 mmHg 89%
    04:00 +26°C° 0.5 mm 2 m/s 751 mmHg 90%
    05:00 +26°C° 0.1 mm 2 m/s 751 mmHg 89%
    06:00 +26°C° 0.1 mm 1 m/s 752 mmHg 88%
    07:00 +27°C° 0.1 mm 1 m/s 752 mmHg 87%
    08:00 +27°C° 0.1 mm 1 m/s 753 mmHg 84%
    09:00 +28°C° 0.1 mm 2 m/s 753 mmHg 81%
    10:00 +29°C° 0.1 mm 2 m/s 753 mmHg 78%
    11:00 +29°C° 0.4 mm 3 m/s 753 mmHg 76%
    12:00 +30°C° 0.4 mm 3 m/s 752 mmHg 74%
    13:00 +30°C° 0.4 mm 4 m/s 752 mmHg 72%
    14:00 +30°C° 0.7 mm 3 m/s 752 mmHg 73%
    15:00 +30°C° 0.7 mm 3 m/s 751 mmHg 74%
    16:00 +29°C° 0.7 mm 3 m/s 751 mmHg 75%
    17:00 +29°C° 0 mm 3 m/s 751 mmHg 78%
    18:00 +28°C° 0 mm 3 m/s 752 mmHg 82%
    19:00 +27°C° 0 mm 3 m/s 752 mmHg 85%
    20:00 +27°C° 0.2 mm 2 m/s 753 mmHg 86%
    21:00 +27°C° 0.2 mm 2 m/s 753 mmHg 87%
    22:00 +27°C° 0.2 mm 2 m/s 754 mmHg 88%
    23:00 +27°C° 0.2 mm 2 m/s 753 mmHg 89%

    24 Mars, Dimanche

    Heure Température Précipitation Vent Pression Humidité
    00:00 +27°C° 0.2 mm 2 m/s 753 mmHg 89%
    01:00 +27°C° 0.2 mm 2 m/s 753 mmHg 89%
    02:00 +27°C° 0.2 mm 2 m/s 752 mmHg 90%
    03:00 +27°C° 0.2 mm 2 m/s 752 mmHg 90%
    04:00 +26°C° 0.2 mm 2 m/s 752 mmHg 90%
    05:00 +27°C° 0.1 mm 2 m/s 752 mmHg 90%
    06:00 +27°C° 0.1 mm 2 m/s 753 mmHg 90%
    07:00 +27°C° 0.1 mm 3 m/s 753 mmHg 90%
    08:00 +28°C° 0.1 mm 3 m/s 754 mmHg 85%
    09:00 +29°C° 0.1 mm 3 m/s 754 mmHg 80%
    10:00 +30°C° 0.1 mm 3 m/s 754 mmHg 75%
    11:00 +30°C° 0.4 mm 3 m/s 754 mmHg 74%
    12:00 +31°C° 0.4 mm 3 m/s 753 mmHg 72%
    13:00 +32°C° 0.4 mm 4 m/s 753 mmHg 70%
    14:00 +32°C° 0.3 mm 4 m/s 752 mmHg 71%
    15:00 +30°C° 0.3 mm 4 m/s 752 mmHg 72%
    16:00 +30°C° 0.3 mm 4 m/s 751 mmHg 73%
    17:00 +29°C° 0.2 mm 3 m/s 752 mmHg 77%
    18:00 +29°C° 0.2 mm 3 m/s 752 mmHg 81%
    19:00 +28°C° 0.2 mm 2 m/s 753 mmHg 85%
    20:00 +28°C° 0.4 mm 2 m/s 753 mmHg 86%
    21:00 +27°C° 0.4 mm 2 m/s 754 mmHg 88%
    22:00 +27°C° 0.4 mm 2 m/s 754 mmHg 89%
    23:00 +27°C° 0.6 mm 2 m/s 754 mmHg 89%

    25 Mars, Lundi

    Heure Température Précipitation Vent Pression Humidité
    00:00 +27°C° 0.6 mm 2 m/s 753 mmHg 89%
    01:00 +27°C° 0.6 mm 2 m/s 753 mmHg 89%
    02:00 +27°C° 0.5 mm 2 m/s 753 mmHg 89%
    03:00 +27°C° 0.5 mm 2 m/s 753 mmHg 89%
    04:00 +26°C° 0.5 mm 2 m/s 752 mmHg 89%
    05:00 +27°C° 0.2 mm 2 m/s 753 mmHg 89%
    06:00 +27°C° 0.2 mm 2 m/s 753 mmHg 88%
    07:00 +27°C° 0.2 mm 2 m/s 754 mmHg 88%
    08:00 +28°C° 0.5 mm 3 m/s 754 mmHg 83%
    09:00 +29°C° 0.5 mm 3 m/s 754 mmHg 78%
    10:00 +30°C° 0.5 mm 3 m/s 754 mmHg 72%
    11:00 +31°C° 0.5 mm 3 m/s 753 mmHg 70%
    12:00 +31°C° 0.5 mm 3 m/s 753 mmHg 68%
    13:00 +33°C° 0.5 mm 4 m/s 752 mmHg 67%
    14:00 +32°C° 0.1 mm 4 m/s 752 mmHg 68%
    15:00 +32°C° 0.1 mm 4 m/s 752 mmHg 70%
    16:00 +32°C° 0.1 mm 4 m/s 751 mmHg 72%
    17:00 +30°C° 0 mm 3 m/s 752 mmHg 77%
    18:00 +29°C° 0 mm 3 m/s 752 mmHg 81%
    19:00 +28°C° 0 mm 3 m/s 753 mmHg 86%
    20:00 +28°C° 0.1 mm 2 m/s 753 mmHg 87%
    21:00 +27°C° 0.1 mm 2 m/s 754 mmHg 88%
    22:00 +27°C° 0.1 mm 2 m/s 754 mmHg 90%
    23:00 +27°C° 0.2 mm 2 m/s 754 mmHg 90%

    26 Mars, Mardi

    Heure Température Précipitation Vent Pression Humidité
    00:00 +27°C° 0.2 mm 2 m/s 753 mmHg 90%
    01:00 +27°C° 0.2 mm 2 m/s 753 mmHg 90%
    02:00 +27°C° 0.2 mm 2 m/s 753 mmHg 91%
    03:00 +27°C° 0.2 mm 1 m/s 753 mmHg 91%
    04:00 +26°C° 0.2 mm 1 m/s 752 mmHg 92%
    05:00 +27°C° 0.1 mm 1 m/s 753 mmHg 91%
    06:00 +27°C° 0.1 mm 1 m/s 753 mmHg 90%
    07:00 +27°C° 0.1 mm 1 m/s 753 mmHg 89%
    08:00 +28°C° 0 mm 1 m/s 753 mmHg 84%
    09:00 +29°C° 0 mm 2 m/s 753 mmHg 78%
    10:00 +30°C° 0 mm 2 m/s 753 mmHg 73%
    11:00 +31°C° 0.1 mm 2 m/s 753 mmHg 71%
    12:00 +31°C° 0.1 mm 3 m/s 752 mmHg 69%
    13:00 +33°C° 0.1 mm 3 m/s 751 mmHg 67%
    14:00 +31°C° 0 mm 3 m/s 751 mmHg 69%
    15:00 +32°C° 0 mm 4 m/s 751 mmHg 72%
    16:00 +30°C° 0 mm 4 m/s 750 mmHg 74%
    17:00 +30°C° 0 mm 3 m/s 750 mmHg 78%
    18:00 +29°C° 0 mm 3 m/s 751 mmHg 83%
    19:00 +28°C° 0 mm 3 m/s 751 mmHg 87%
    20:00 +28°C° 0.1 mm 3 m/s 751 mmHg 88%
    21:00 +28°C° 0.1 mm 3 m/s 752 mmHg 89%
    22:00 +28°C° 0.1 mm 3 m/s 752 mmHg 89%
    23:00 +27°C° 0.2 mm 3 m/s 752 mmHg 90%
    Voir plus